This demonstration page uses our WeatherBlox Daily Observations layout. Learn more.

Hourly Observations for April 11, 2015

Temp ( °F °C ) Dew Point ( °F °C ) Humidity (%) Winds ( mph kmh ) Pressure ( in mb ) Visibility ( mi km ) Precip ( " mm )
12:15 am 00:15 Clear 47 8.6 26 -3.5 43 43 S 8 13 30.12 1020 10 16.0934 0 0
12:35 am 00:35 Clear 45 7.2 26 -3.2 48 48 S 8 13 30.12 1020 10 16.0934 0 0
12:55 am 00:55 Clear 43 6.3 27 -2.9 52 52 S 8 13 30.15 1021 10 16.0934 0 0
1:15 am 01:15 Clear 44 6.8 27 -3 50 50 S 8 13 30.12 1020 10 16.0934 0 0
1:35 am 01:35 Clear 45 7.4 26 -3.1 48 48 S 8 13 30.12 1020 10 16.0934 0 0
1:55 am 01:55 Clear 44 6.5 26 -3.2 50 50 S 8 13 30.12 1020 10 16.0934 0 0
2:15 am 02:15 Clear 40 4.7 27 -2.9 58 58 SSE 6 9 30.15 1021 10 16.0934 0 0
2:35 am 02:35 Clear 39 4.1 27 -2.7 62 62 SSE 7 11 30.12 1020 10 16.0934 0 0
2:55 am 02:55 Clear 39 3.9 27 -2.7 62 62 SE 7 11 30.12 1020 10 16.0934 0 0
3:15 am 03:15 Clear 39 3.7 27 -2.7 63 63 SE 7 11 30.12 1020 10 16.0934 0 0
3:35 am 03:35 Clear 38 3.1 28 -2.5 67 67 SE 7 11 30.15 1021 10 16.0934 0 0
3:55 am 03:55 Clear 37 3 28 -2.5 67 67 SSE 8 13 30.15 1021 10 16.0934 0 0
4:15 am 04:15 Clear 39 3.9 28 -2.5 63 63 SSE 7 11 30.12 1020 10 16.0934 0 0
4:35 am 04:35 Clear 39 4.1 28 -2.4 63 63 SSE 8 13 30.12 1020 10 16.0934 0 0
4:55 am 04:55 Clear 38 3.4 28 -2.5 66 66 SSE 5 7 30.15 1021 10 16.0934 0 0
5:15 am 05:15 Clear 39 3.8 28 -2.1 66 66 S 8 13 30.12 1020 10 16.0934 0 0
5:35 am 05:35 Clear 40 4.5 28 -2.2 62 62 S 9 15 30.12 1020 10 16.0934 0 0
5:55 am 05:55 Clear 40 4.2 28 -2 64 64 S 8 13 30.12 1020 10 16.0934 0 0
6:15 am 06:15 Clear 40 4.2 28 -2.1 64 64 S 8 13 30.09 1019 10 16.0934 0 0
6:35 am 06:35 Clear 39 4.1 28 -2 65 65 S 9 15 30.09 1019 10 16.0934 0 0
6:55 am 06:55 Clear 38 3.6 29 -1.9 68 68 S 9 15 30.09 1019 10 16.0934 0 0
7:15 am 07:15 Sunny 38 3.6 28 -2 67 67 SSE 8 13 30.12 1020 10 16.0934 0 0
7:35 am 07:35 Sunny 38 3.4 29 -1.8 69 69 SSE 7 11 30.15 1021 10 16.0934 0 0
7:55 am 07:55 Sunny 40 4.2 30 -1.3 68 68 SSE 5 7 30.12 1020 10 16.0934 0 0
8:15 am 08:15 Sunny 43 6.3 32 -0.2 63 63 S 10 17 30.12 1020 10 16.0934 0 0
8:35 am 08:35 Sunny 47 8.6 33 0.7 58 58 S 10 17 30.09 1019 10 16.0934 0 0
8:55 am 08:55 Sunny 50 10.1 33 0.6 52 52 S 13 20 30.06 1018 10 16.0934 0 0
9:15 am 09:15 Sunny 53 11.6 34 1 48 48 S 16 26 30.06 1018 10 16.0934 0 0
9:35 am 09:35 Sunny 55 13 34 1 44 44 S 18 30 30.06 1018 10 16.0934 0 0
9:55 am 09:55 Sunny 56 13.6 35 1.5 44 44 S 18 30 30 1016 10 16.0934 0 0
10:15 am 10:15 Sunny 59 14.8 36 2.1 43 43 S 20 31 30 1016 10 16.0934 0 0
10:35 am 10:35 Sunny 60 15.7 36 2.1 40 40 S 22 35 30 1016 10 16.0934 0 0
10:55 am 10:55 Sunny 62 16.5 36 2 38 38 S 16 26 29.94 1014 10 16.0934 0 0
11:15 am 11:15 Sunny 63 17.1 35 1.9 36 36 S 23 37 29.94 1014 10 16.0934 0 0
11:35 am 11:35 Sunny 64 18 35 1.8 34 34 S 21 33 29.94 1014 10 16.0934 0 0
11:55 am 11:55 Sunny 66 18.9 36 2.1 33 33 S 22 35 29.94 1014 10 16.0934 0 0
12:15 pm 12:15 Sunny 67 19.6 35 1.8 31 31 S 20 31 29.91 1013 10 16.0934 0 0
12:35 pm 12:35 Sunny 68 20 36 2.3 31 31 SSW 28 44 29.88 1012 10 16.0934 0 0
12:55 pm 12:55 Partly Cloudy 67 19.6 36 2.2 32 32 S 24 39 29.88 1012 10 16.0934 0 0
1:15 pm 13:15 Mostly Cloudy 68 20 37 2.5 31 31 S 26 43 29.88 1012 10 16.0934 0 0
1:35 pm 13:35 Partly Cloudy 68 19.8 35 1.8 30 30 S 24 39 29.88 1012 10 16.0934 0 0
1:55 pm 13:55 Partly Cloudy 67 19.7 36 2.1 31 31 SSE 23 37 29.85 1011 10 16.0934 0 0
2:15 pm 14:15 Sunny 68 19.9 37 2.9 33 33 S 23 37 29.85 1011 10 16.0934 0 0
2:35 pm 14:35 Sunny 68 20.1 38 3.1 33 33 S 22 35 29.85 1011 10 16.0934 0 0
2:55 pm 14:55 Partly Cloudy 69 20.4 37 3 32 32 SSE 22 35 29.83 1010 10 16.0934 0 0
3:15 pm 15:15 Partly Cloudy 69 20.6 37 3 31 31 S 22 35 29.83 1010 10 16.0934 0 0
3:35 pm 15:35 Sunny 70 21.1 38 3.2 31 31 S 23 37 29.83 1010 10 16.0934 0 0
3:55 pm 15:55 Sunny 69 20.8 38 3.4 32 32 SSE 23 37 29.8 1009 10 16.0934 0 0
4:15 pm 16:15 Sunny 70 21.1 38 3.5 32 32 SSE 22 35 29.8 1009 10 16.0934 0 0
4:35 pm 16:35 Sunny 71 21.5 38 3.6 31 31 S 21 33 29.74 1007 10 16.0934 0 0
4:55 pm 16:55 Sunny 70 21.1 38 3.3 31 31 S 24 39 29.77 1008 10 16.0934 0 0
5:15 pm 17:15 Sunny 71 21.5 38 3.5 31 31 S 21 33 29.71 1006 10 16.0934 0 0
5:35 pm 17:35 Sunny 70 21.3 39 4 32 32 S 24 39 29.74 1007 10 16.0934 0 0
5:55 pm 17:55 Partly Cloudy 71 21.6 41 4.8 33 33 S 24 39 29.71 1006 10 16.0934 0 0
6:15 pm 18:15 Partly Cloudy 71 21.5 41 5.2 35 35 S 24 39 29.71 1006 10 16.0934 0 0
6:35 pm 18:35 Sunny 70 21 44 6.4 39 39 S 24 39 29.74 1007 10 16.0934 0 0
6:55 pm 18:55 Sunny 69 20.5 44 6.5 40 40 S 21 33 29.74 1007 10 16.0934 0 0
7:15 pm 19:15 Sunny 67 19.6 43 6.3 42 42 S 25 41 29.74 1007 10 16.0934 0 0
7:35 pm 19:35 Partly Cloudy 65 18.4 44 6.5 46 46 S 21 33 29.74 1007 10 16.0934 0 0
7:55 pm 19:55 Sunny 64 17.6 44 6.6 49 49 S 16 26 29.74 1007 10 16.0934 0 0
8:15 pm 20:15 Clear 62 16.9 44 6.7 51 51 S 18 30 29.77 1008 10 16.0934 0 0
8:35 pm 20:35 Partly Cloudy 61 16.1 44 6.8 54 54 S 15 24 29.77 1008 10 16.0934 0 0
8:55 pm 20:55 Partly Cloudy 60 15.5 45 7 57 57 SSE 13 20 29.77 1008 10 16.0934 0 0
9:15 pm 21:15 Clear 59 15 45 7 59 59 SSE 13 20 29.77 1008 10 16.0934 0 0
9:35 pm 21:35 Clear 59 15.1 45 7 59 59 SSE 14 22 29.77 1008 10 16.0934 0 0
9:55 pm 21:55 Clear 58 14.6 45 7 61 61 SSE 15 24 29.77 1008 10 16.0934 0 0
10:15 pm 22:15 Clear 58 14.5 45 7.3 62 62 SSE 17 28 29.77 1008 10 16.0934 0 0
10:35 pm 22:35 Clear 58 14.6 46 7.7 64 64 S 21 33 29.77 1008 10 16.0934 0 0
10:55 pm 22:55 Clear 58 14.2 46 7.7 65 65 S 20 31 29.8 1009 10 16.0934 0 0
11:15 pm 23:15 Clear 57 13.7 45 7.3 66 66 S 16 26 29.8 1009 10 16.0934 0 0
11:35 pm 23:35 Clear 56 13.2 44 6.7 65 65 S 15 24 29.8 1009 10 16.0934 0 0
11:55 pm 23:55 Clear 55 12.7 44 6.4 66 66 S 17 28 29.8 1009 10 16.0934 0 0

Powered by AerisWeather